Location: Seale
(32.2974°N, 85.1688°W)
Time: 09:30:50
(UTC+00:00)

Hubble Space Telescope - Pass Details

Date: 22 January 2021
Orbit: 536 x 539 km, 28.5° (Epoch: 26 February)

Event Time Altitude Azimuth Distance (km) Brightness Sun altitude
Rises 00:11:18 0° 259° (W) 2,674 6.3 -14.2°
Reaches altitude 10° 00:13:37 10° 254° (WSW) 1,783 4.9 -14.7°
Maximum altitude 00:17:36 49° 179° (S) 689 1.3 -15.5°
Enters shadow 00:19:47 24° 114° (ESE) 1,130 2.0 -16.0°
